Regional Weather Roundup
Issued by NWS Albany, NY

Home | Current Version | Previous Version | Text Only | Print | Product List | Glossary On
Versions: 1 2 3 4 5 6 7 8 9 10 11 12 13 14 15 16 17 18 19 20 21 22 23 24 25 26 27 28 29 30 31 32 33 34 35 36 37 38 39 40 41 42 43 44 45 46 47 48 49 50
000
ASUS41 KALY 251810
RWRALY

NEW YORK STATE HOURLY WEATHER ROUNDUP
NATIONAL WEATHER SERVICE ALBANY NY
200 PM EDT SAT APR 25 2015

NOTE: "FAIR" INDICATES FEW OR NO CLOUDS BELOW 12,000 FEET WITH NO
SIGNIFICANT WEATHER AND/OR NO OBSTRUCTIONS TO VISIBILITY.

NYZ032-033-038>043-046>054-057>066-NYZ062>081-251900-
EAST


CITY           SKY/WX    TMP DP  RH WIND       PRES   REMARKS
ALBANY         MOSUNNY   53  26  35 NW15G23   29.79F
GLENS FALLS    PTSUNNY   52  26  36 N12G23    29.76F
POUGHKEEPSIE   SUNNY     57  27  31 NW12      29.76F
NEWBURGH       SUNNY     52  28  40 W9        29.78F
MONTGOMERY     SUNNY     56  27  32 NW9G20    29.76F
WHITE PLAINS   MOSUNNY   54  25  32 NW15      29.77F
ISLIP          MOSUNNY   54  25  32 W10G17    29.77F
NEW YORK CITY  MOSUNNY   55  25  31 NW13      29.79F
CENTRAL PARK   SUNNY     56  21  25 W8G21     29.81F
$$

NYZ005>009-017-018-044>046-055-056-251900-
CENTRAL


CITY           SKY/WX    TMP DP  RH WIND       PRES   REMARKS
FULTON         SUNNY     45  26  47 NW12G17   29.89F
SYRACUSE       MOSUNNY   48  26  42 NW15G21   29.87F
ROME           PTSUNNY   48  28  46 VRB5G18   29.85F
ELMIRA         SUNNY     52  27  38 NW8G20    29.83F
BINGHAMTON     SUNNY     46  26  45 NW10G22   29.81F
MONTICELLO     SUNNY     48  25  40 N8G20     29.79F
$$

NYZ026>034-041>043-251900-
NORTH


CITY           SKY/WX    TMP DP  RH WIND       PRES   REMARKS
WATERTOWN      CLOUDY    42  26  53 W14       29.88F
FORT DRUM      NOT AVBL
MASSENA        MOSUNNY   46  30  53 W10       29.85F
SARANAC LAKE   PTSUNNY   40  27  59 VRB6      29.76F
PLATTSBURGH    CLOUDY    44  29  55 E7        29.78S
$$

NYZ001>004-010>016-019>021-251900-
WEST


CITY           SKY/WX    TMP DP  RH WIND       PRES   REMARKS
NIAGARA FALLS  MOSUNNY   47  25  42 N13       29.89F
BUFFALO        MOSUNNY   48  25  40 VRB7      29.88F
DUNKIRK        SUNNY     45  24  43 N10       29.90F
JAMESTOWN      MOSUNNY   45  21  39 NW7       29.84F
WELLSVILLE     SUNNY     48  22  35 NE9       29.82F
ROCHESTER      MOSUNNY   48  28  46 N9        29.88F
PENN YAN       SUNNY     48  26  42 NW8       29.86F
$$

             KEY
       WCI = WIND CHILL INDEX
       VSB = VISIBILITY
       HX  = HEAT INDEX
$$


USA.gov is the U.S. government's official web portal to all federal, state and local government web resources and services.